Anchorage, AK

8:37 PM AKDT on September 24, 2016 (GMT -0800)
Merrill

Weather History for PAMR - December, 2012

Change the Weather History Date:

Saturday, December 15, 2012

  Actual Average Record
Temperature  
Mean Temperature 10 °F -  
Max Temperature 19 °F 21 °F 39 °F (2011)
Min Temperature -2 °F 9 °F -8 °F (1999)
Degree Days  
Heating Degree Days 56    
Moisture  
Dew Point 4 °F    
Average Humidity 81    
Maximum Humidity 93    
Minimum Humidity 72    
Precipitation  
Precipitation 0.03 in - - ()
Sea Level Pressure  
Sea Level Pressure 29.17 in    
Wind  
Wind Speed 2 mph (West)    
Max Wind Speed 7 mph    
Max Gust Speed -    
Visibility 10 miles    
Events      
Averages and records for this station are not official NWS values.
T = Trace of Precipitation, MM = Missing Value Source: NWS Daily Summary

Daily Weather History Graph

Daily Weather History Graph

Search for Another Location

Airport or City:

Trip Planner

Search our weather history database for the weather conditions in past years. The results will help you decide how hot, cold, wet, or windy it might be!

Date:

Astronomy

Dec. 15, 2012 Rise Set
Actual Time 10:09 AM AKST 3:40 PM AKST
Civil Twilight 9:07 AM AKST 4:42 PM AKST
Nautical Twilight 8:08 AM AKST 5:41 PM AKST
Astronomical Twilight 7:14 AM AKST 6:35 PM AKST
Moon 11:27 AM AKST (12/15) 7:44 PM AKST (12/15)
Length of Visible Light 7h 34m
Length of Day
5h 30m
Waxing Crescent, 9% of the Moon is Illuminated
Dec 15
Waxing Crescent
Dec 19
First Quarter
Dec 28
Full
Jan 4
Last Quarter
Jan 11
New

Hourly Weather History & Observations

Time (AKST) Temp. Windchill Dew Point Humidity Pressure Visibility Wind Dir Wind Speed Gust Speed Precip Events Conditions
12:40 AM 19.4 °F 14.3 °F 17.6 °F 93% 29.14 in 5.0 mi NNE 3.5 mph - N/A   Overcast
12:53 AM 19.9 °F - 18.0 °F 92% 29.16 in 10.0 mi Calm Calm - N/A   Overcast
1:26 AM 19.4 °F 14.3 °F 17.6 °F 93% 29.15 in 10.0 mi WSW 3.5 mph - N/A   Overcast
1:37 AM 19.4 °F 11.5 °F 17.6 °F 93% 29.15 in 10.0 mi WSW 5.8 mph - N/A   Overcast
1:53 AM 18.0 °F 11.1 °F 15.1 °F 88% 29.16 in 10.0 mi West 4.6 mph - N/A   Overcast
3:30 AM 15.8 °F - 10.4 °F 79% 29.14 in 10.0 mi Calm Calm - N/A   Scattered Clouds
3:53 AM 12.9 °F 6.9 °F 8.1 °F 81% 29.15 in 10.0 mi WSW 3.5 mph - N/A   Clear
4:53 AM 10.9 °F 4.7 °F 7.0 °F 84% 29.16 in 10.0 mi WSW 3.5 mph - N/A   Clear
5:53 AM 7.0 °F - 1.9 °F 80% 29.14 in 10.0 mi Calm Calm - N/A   Clear
6:53 AM 10.0 °F 1.8 °F 5.0 °F 80% 29.13 in 10.0 mi WSW 4.6 mph - N/A   Partly Cloudy
7:53 AM 7.0 °F - 1.0 °F 77% 29.14 in 10.0 mi Calm Calm - N/A   Clear
8:53 AM 8.1 °F -3.2 °F 5.0 °F 87% 29.14 in 10.0 mi West 6.9 mph - N/A   Clear
9:53 AM 6.1 °F - 1.0 °F 80% 29.15 in 10.0 mi Calm Calm - 0.01 in   Clear
10:53 AM 3.0 °F - -0.9 °F 84% 29.15 in 10.0 mi Calm Calm - N/A   Clear
11:53 AM 10.0 °F 3.6 °F 3.0 °F 73% 29.15 in 10.0 mi North 3.5 mph - N/A   Clear
12:53 PM 12.0 °F - 5.0 °F 73% 29.14 in 10.0 mi Calm Calm - N/A   Clear
1:53 PM 10.0 °F - 3.9 °F 76% 29.15 in 10.0 mi Calm Calm - N/A   Clear
2:53 PM 6.1 °F - -0.0 °F 76% 29.15 in 10.0 mi Calm Calm - 0.01 in   Clear
3:53 PM 5.0 °F - -2.0 °F 73% 29.15 in 10.0 mi Calm Calm - N/A   Partly Cloudy
4:53 PM 6.1 °F - -0.0 °F 76% 29.15 in 10.0 mi Calm Calm - N/A   Clear
5:53 PM 5.0 °F - -0.9 °F 76% 29.16 in 10.0 mi Calm Calm - N/A   Clear
6:53 PM 1.9 °F - -2.0 °F 83% 29.18 in 10.0 mi Calm Calm - N/A   Clear
7:53 PM 1.9 °F - -2.0 °F 83% 29.21 in 10.0 mi Calm Calm - N/A   Scattered Clouds
8:53 PM 3.9 °F -3.4 °F -2.9 °F 73% 29.22 in 10.0 mi SW 3.5 mph - 0.01 in   Clear
9:53 PM -0.9 °F - -6.0 °F 79% 29.24 in 9.0 mi Calm Calm - N/A   Partly Cloudy
10:53 PM -0.9 °F - -8.0 °F 72% 29.26 in 10.0 mi Calm Calm - N/A   Partly Cloudy
11:53 PM -2.9 °F - -8.0 °F 79% 29.28 in 10.0 mi Calm Calm - N/A   Clear